1500822055.9,286047015.1,Y
1500822075.7,286047001.6,N
1500822095.6,286047001.0,N
1500822115.4,286046998.1,N
1500822135.2,286046998.5,N
1500822155.1,286046999.5,N
1500822156.0,286046999.5,N
1500822175.8,286046997.8,N
1500822195.6,286046996.5,N
1500822215.5,286046998.5,N
1500822235.3,286046998.6,N
1500822255.1,286046997.2,N
1500822275.9,286046995.7,Y
1500822295.7,286046997.9,N
1500822315.5,286046995.8,Y
1500822335.4,286046994.2,Y
1500822355.2,286046995.5,N
1500822375.0,286046993.3,Y
1500822375.9,286046993.3,Y
1500822395.8,286046998.2,N
1500822415.6,286046998.1,N
1500822435.4,286046997.9,N
1500822455.3,286046993.5,Y
1500822475.1,286046997.6,N
1500822495.8,286047002.4,N
1500822515.7,286047004.0,N
1500822535.5,286047001.8,N
1500822555.3,286047008.6,N
1500822575.1,286047010.7,N
1500822595.9,286047008.7,N
1500822615.7,286047006.5,N
1500822635.8,286047003.6,N
1500822655.7,286047004.6,N
1500822675.5,286047004.7,N
1500822695.3,286047001.0,N
1500822715.2,286047000.1,N
1500822735.9,286046997.4,N
1500822755.7,286046995.2,N
1500822775.6,286046991.7,N
1500822795.4,286046991.9,N
1500822815.2,286046995.6,N
1500822835.0,286047002.4,N
1500822836.0,286047002.4,N
1500822855.8,286047000.1,N
1500822875.6,286047002.2,N
1500822895.4,286047001.1,N
1500822915.3,286046995.2,N
1500822935.1,286046992.4,N
1500822955.8,286046989.2,N
1500822975.7,286046989.2,N
1500822995.5,286046987.3,N
1500823015.3,286046990.7,N
1500823035.2,286046990.8,N
1500823055.9,286046994.3,N
1500823075.7,286046992.3,N
1500823095.6,286046993.6,N
1500823115.4,286046998.9,N
1500823135.2,286047002.2,N
1500823155.0,286047004.2,N
1500823155.9,286047004.2,N
1500823175.8,286046999.9,N
1500823195.6,286046995.9,N
1500823215.4,286046994.6,N
1500823235.3,286046990.8,N
1500823255.1,286046989.6,N
1500823275.8,286046989.8,N
1500823295.7,286046990.7,N
1500823315.5,286046993.0,N
1500823335.3,286046988.7,N
1500823355.2,286046989.7,N
1500823375.9,286046991.7,N
1500823395.7,286046993.9,N
1500823415.5,286046995.3,N
1500823435.4,286046998.5,N
1500823455.2,286047003.6,N
1500823475.0,286047009.2,N
1500823475.9,286047009.2,N
1500823495.8,286047014.0,N
1500823515.6,286047017.1,N
1500823535.4,286047021.2,N
1500823555.3,286047026.8,N
1500823575.1,286047028.5,N
1500823576.0,286047028.5,N
1500823595.8,286047031.8,N
1500823615.7,286047036.4,N
1500823635.5,286047036.6,N
1500823655.3,286047042.1,N
1500823675.2,286047043.3,N
1500823695.9,286047046.9,Y
1500823715.7,286047026.7,N
1500823735.6,286047027.9,N
1500823755.4,286047027.6,N
1500823775.2,286047027.7,N
1500823795.1,286047028.5,N
1500823796.0,286047028.5,Y
1500823815.8,286046999.9,N
1500823835.6,286046999.8,N
1500823855.5,286046999.6,N
1500823875.3,286046999.3,N
1500823895.1,286046996.6,N
1500823915.9,286047000.2,N
1500823935.7,286047001.5,N
1500823955.5,286046998.4,N
1500823975.3,286046996.5,N
1500823995.2,286046993.4,N
1500824015.0,286046997.4,N
1500824015.9,286046997.4,N
1500824035.7,286046996.1,N
1500824055.6,286046997.6,N
1500824075.4,286046997.5,N
1500824095.2,286046990.4,N
1500824115.1,286046987.7,N
1500824116.0,286046987.7,N
1500824135.8,286046985.9,Y
1500824155.6,286046983.4,Y
1500824175.5,286046984.7,N
1500824195.3,286046978.9,Y
1500824215.1,286046986.6,N
1500824235.9,286046983.7,N
1500824255.7,286046988.5,N
1500824275.5,286046991.5,N
1500824295.4,286046991.2,N
1500824315.2,286046992.5,N
1500824335.0,286046996.4,N
1500824335.9,286046996.4,N
1500824355.8,286046995.0,N
1500824375.6,286047000.0,N
1500824395.4,286047007.2,N
1500824415.3,286047011.2,N
1500824435.1,286047012.5,N
1500824436.0,286047012.5,N
1500824455.8,286047017.1,N
1500824475.7,286047018.5,N
1500824495.5,286047017.3,N
1500824515.3,286047020.2,N
1500824535.1,286047019.2,N
1500824555.9,286047023.6,N
1500824575.7,286047022.9,N
1500824595.5,286047025.6,N
1500824615.4,286047025.4,N
1500824635.6,286047027.5,N
1500824655.5,286047029.5,N
1500824675.3,286047031.0,N
1500824695.1,286047032.6,N
1500824715.8,286047033.6,N
1500824735.7,286047034.7,Y
1500824755.5,286047017.6,N
1500824775.3,286047019.8,N
1500824795.2,286047020.0,N
1500824815.0,286047019.4,N
1500824815.9,286047019.4,N
1500824835.8,2860471500824915.6,286047000.7,Y
1500824935.5,286047010.3,N
1500824955.3,286047007.3,N
1500824975.1,286047004.2,N
1500824995.9,286047002.5,N
1500825015.7,286047004.3,N
1500825035.5,286047003.6,N
1500825055.3,286047003.1,N
1500825075.2,286047003.0,N
1500825095.0,286047000.7,N
1500825095.9,286047000.7,N
1500825115.7,286047000.4,N
1500825135.6,286046998.6,N
1500825155.4,286046997.6,N
1500825175.2,286046997.8,N
1500825195.1,286046996.0,N
1500825196.0,286046996.0,N
1500825215.8,286046993.0,N
1500825235.6,286046991.2,Y
1500825255.5,286046991.1,N
1500825275.3,286046993.0,N
1500825295.1,286046989.6,Y
1500825315.9,286046988.9,Y
1500825335.7,286046992.6,N
1500825355.6,286046988.8,Y
1500825375.4,286046991.2,N
1500825395.2,286046989.1,Y
1500825415.1,286046996.0,N
1500825416.0,286046996.0,N
1500825435.8,286046994.9,N
1500825455.6,286046997.4,N
1500825475.4,286046995.4,N
1500825495.3,286046996.7,N
1500825515.1,286047003.0,N
1500825535.8,286047005.0,N
1500825555.7,286047007.5,N
1500825575.5,286047008.9,N
1500825595.3,286047008.7,N
